Regional Weather Roundup
Issued by NWS New Orleans/Baton Rouge, LA

Home | Current Version | Previous Version | Graphics & Text | Print | Product List | Glossary On
Versions: 1 2 3 4 5 6 7 8 9 10 11 12 13 14 15 16 17 18 19 20 21 22 23 24 25 26 27 28 29 30 31 32 33 34 35 36 37 38 39 40 41 42 43 44 45 46 47 48 49 50
701
ASUS44 KLIX 160505
RWRLIX
NEW ORLEANS REGIONAL WEATHER ROUNDUP
NATIONAL WEATHER SERVICE NEW ORLEANS LA
1200 AM CDT TUE SEP 16 2014

NOTE: "FAIR" INDICATES FEW OR NO CLOUDS BELOW 12,000 FEET WITH NO
      SIGNIFICANT WEATHER AND/OR OBSTRUCTIONS TO VISIBILITY.
      SKY/WX - SKY CONDITION AND SIGNIFICANT WEATHER.
      TMP - AIR TEMPERATURE.     DP    - DEWPOINT TEMPERATURE.
      RH  - RELATIVE HUMIDITY.   PRES  - PRESSURE.
      HI  - HEAT INDEX.          WCI   - WIND CHILL INDEX.

*  THESE STATIONS ARE NOT NWS OR FAA STATIONS AND ARE NOT UNDER
   NWS QUALITY CONTROL.

LAZ038-040-048-061>063-065>067-069-160600-
SOUTHEAST LOUISIANA

CITY           SKY/WX    TMP DP  RH WIND       PRES   REMARKS
N.O. AUDUBON     N/A     80  79  96 MISG        N/A
N.O. INTL ARPT MOCLDY    78  75  90 CALM      30.09S
N.O. LAKEFRONT CLOUDY    81  76  84 SW6       30.09F
N.O. DOWNTOWN*   N/A     82  73  74 CALM      30.09F
SLIDELL        CLOUDY    77  74  90 CALM      30.08S
BATON ROUGE    PTCLDY    75  74  96 CALM      30.09F
BOOTHVILLE     MOCLDY    81  77  88 CALM      30.09F
BELLE CHASSE   MOCLDY    77  73  87 CALM      30.08F
BOGALUSA*        N/A     76  73  87 CALM      30.10F
GALLIANO*      NOT AVBL
NEW ROADS*     MOCLDY    76  74  95 CALM      30.10S
GONZALES*        N/A     76  76 100 CALM      30.08S
HAMMOND*       MOCLDY    77  73  88 CALM      30.11S
HOUMA*         PTCLDY    76  73  90 CALM      30.09S
PORT FOURCHON*   N/A     82  75  78 CALM      30.12S

$$

MSZ070-080>082-160600-
SOUTHERN MISSISSIPPI

CITY           SKY/WX    TMP DP  RH WIND       PRES   REMARKS
MCCOMB         PTCLDY    78  74  87 CALM      30.11F
GULFPORT       PTCLDY    78  75  90 N5        30.07F
BILOXI         PTCLDY    79  76  90 N5        30.08S
PASCAGOULA     MOCLDY    76  75  97 CALM      30.07F

$$

COASTAL OBSERVATIONS
LAKE AND NEARSHORE STATIONS

STATION/POSITION TIME  TEMP    WIND        PRES    WAVE
                       AIR SEA DIR/SP/G            HT/PER
                 (UTC) (F)     (DEG/KT/KT) (MB)    (FT/S)
PASCAGOULA       0400   81                   N/A
WAVELAND YACHT   0400   78                   N/A
GRAND ISLE       0400      86                N/A
SOUTHWEST PASS   0400      91                N/A
NEW CANAL        0400      82                N/A
SHELL BEACH      0400      80                N/A

OFFSHORE STATIONS

STATION/POSITION TIME  TEMP    WIND        PRES    WAVE
                       AIR SEA DIR/SP/G            HT/PER
                 (UTC) (F)     (DEG/KT/KT) (MB)    (FT/S)
64 S DAUPHIN ISL 0437   83 86  240/  8/ 10 1019.6    3/ 7

$$




USA.gov is the U.S. government's official web portal to all federal, state and local government web resources and services.